Location: Newark
(49.8969°N, 3.3422°E)
Time: 15:00:14
(UTC+00:00)

Envisat - Pass Details

Date: 11 December 2019
Orbit: 764 x 766 km, 98.1° (Epoch: 18 January)

Event Time Altitude Azimuth Distance (km) Brightness Sun altitude
Rises 05:41:06 0° 23° (NNE) 3,246 6.3 -17.1°
Reaches altitude 10° 05:43:49 10° 36° (NE) 2,314 5.7 -16.7°
Maximum altitude 05:48:02 26° 92° (E) 1,492 5.3 -16.1°
Drops below altitude 10° 05:52:12 10° 148° (SSE) 2,298 6.2 -15.4°
Sets 05:54:52 0° 161° (SSE) 3,219 6.8 -15.0°
